Tracking 19177 objects as of 24-May-2018
HD Live streaming from Space Station
objects crossing your sky now

GONETS D1 6

Track GONETS D1 6 now!
10-day predictions
GONETS D1 6 is classified as:


NORAD ID: 24730
Int'l Code: 1997-006F
Perigee: 1,418.2 km
Apogee: 1,422.1 km
Inclination: 82.6 °
Period: 114.1 minutes
Semi major axis: 7791 km
RCS: 0.9337 m2 (medium)
Launch date: February 14, 1997
Source: Commonwealth of Independent States (former USSR) (CIS)
Launch site: PLESETSK MISSILE AND SPACE COMPLEX (PKMTR)
aabbcc
Your satellite tracking list
Your tracking list is empty




NASA's NSSDC Master Catalog

Two Line Element Set (TLE):
1 24730U 97006F   18143.72523680 +.00000024 +00000-0 +74816-4 0  9994
2 24730 082.6056 330.2764 0002479 131.5416 228.5888 12.62416932980120
Source of the keplerian elements: AFSPC